{"data":{"norad_id":65574,"intl_designator":"2025-203K","name":"PRAETORIAN SDA_611","alt_names":[],"object_type":"PAYLOAD","status":"ACTIVE","operator":null,"country":"US","launch_date":"2025-09-10","launch_site_code":"AFWTR","launch_vehicle":null,"mission":null,"orbit_class":"UNKNOWN","rcs_meters":null,"size_class":null,"mass_kg":null,"dimensions":null,"purposes":["military"],"wikipedia_slug":null,"has_3d_model":false,"image_url":null,"decayed_at":null,"tle_current":{"epoch":"2026-09-20T00:36:26.320896Z","epoch_age_seconds":55448,"freshness":"FRESH","line1":"1 65574U 25203K   26263.02530464  .00000389  00000+0  34324-3 0  9990","line2":"2 65574  81.2980 283.2119 0004737 315.0406  45.0366 13.83314769 51794","mean_motion":13.83314769,"eccentricity":0.0004737,"inclination_deg":81.298,"raan_deg":283.2119,"arg_perigee_deg":315.0406,"mean_anomaly_deg":45.0366,"bstar":0.00034324,"rev_number":5179,"period_min":104.09778253441,"perigee_km":948.68079387858,"apogee_km":955.62551076889,"semimajor_km":7330.2901523237,"source":"CELESTRAK","updated_at":"2026-09-20T09:00:47.716228Z"}}}